Weather History for Walhalla, ND

Change the Weather History Date:

Tuesday, February 26, 2013

  Actual Average (KGAF) Record (KGAF)
Temperature  
Mean Temperature 24 °F -  
Max Temperature 35 °F 30 °F 62 °F (1958)
Min Temperature 12 °F 12 °F -21 °F (1962)
Degree Days  
Heating Degree Days 42    
Moisture  
Dew Point 16 °F    
Average Humidity 71    
Maximum Humidity 100    
Minimum Humidity 44    
Precipitation  
Precipitation 0.00 in - - ()
Sea Level Pressure  
Sea Level Pressure 29.98 in    
Wind  
Wind Speed 8 mph (WSW)    
Max Wind Speed 15 mph    
Max Gust Speed 21 mph    
Visibility 10 miles    
Events      
Averages and records for this station are not official NWS values.
T = Trace of Precipitation, MM = Missing Value Source: NWS Daily Summary

Daily Weather History Graph

Daily Weather History Graph

Search for Another Location

Airport:

Trip Planner

Search our weather history database for the weather conditions in past years. The results will help you decide how hot, cold, wet, or windy it might be!

Date:

Astronomy

Feb. 26, 2013 Rise Set
Actual Time 7:18 AM CST 6:10 PM CST
Civil Twilight 6:47 AM CST 6:42 PM CST
Nautical Twilight 6:10 AM CST 7:19 PM CST
Astronomical Twilight 5:33 AM CST 7:55 PM CST
Moon 7:40 PM CST (2/26) 7:13 AM CST (2/26)
Length of Visible Light 11h 55m
Length of Day
10h 51m
Full, 99% of the Moon is Illuminated
Feb 26
Full
Mar 4
Last Quarter
Mar 11
New
Mar 19
First Quarter
Mar 27
Full

Hourly Weather History & Observations

Time (CST) Temp. Windchill Dew Point Humidity Pressure Visibility Wind Dir Wind Speed Gust Speed Precip Events Conditions
12:15 AM 32.0 °F 22.5 °F 17.6 °F 55% 29.87 in 10.0 mi SW 12.7 mph 20.7 mph N/A   Partly Cloudy
12:35 AM 32.0 °F 21.6 °F 17.6 °F 55% 29.87 in 10.0 mi SW 15.0 mph 18.4 mph N/A   Clear
12:55 AM 32.0 °F 23.6 °F 17.6 °F 55% 29.88 in 10.0 mi SW 10.4 mph 16.1 mph N/A   Clear
1:15 AM 32.0 °F 24.2 °F 17.6 °F 55% 29.88 in 10.0 mi SW 9.2 mph - N/A   Clear
1:35 AM 32.0 °F 23.6 °F 17.6 °F 55% 29.88 in 10.0 mi SW 10.4 mph - N/A   Clear
1:55 AM 28.4 °F 19.7 °F 17.6 °F 64% 29.88 in 10.0 mi SW 9.2 mph 16.1 mph N/A   Clear
2:15 AM 30.2 °F 21.9 °F 17.6 °F 60% 29.89 in 10.0 mi SW 9.2 mph - N/A   Clear
2:35 AM 32.0 °F 23.0 °F 19.4 °F 60% 29.88 in 10.0 mi SW 11.5 mph - N/A   Clear
2:55 AM 32.0 °F 23.6 °F 19.4 °F 60% 29.89 in 10.0 mi SW 10.4 mph 18.4 mph N/A   Clear
3:15 AM 32.0 °F 26.4 °F 19.4 °F 60% 29.89 in 10.0 mi SSW 5.8 mph - N/A   Clear
3:35 AM 30.2 °F 23.4 °F 19.4 °F 64% 29.89 in 10.0 mi SW 6.9 mph - N/A   Clear
3:55 AM 30.2 °F 24.3 °F 19.4 °F 64% 29.90 in 10.0 mi SSW 5.8 mph - N/A   Clear
4:15 AM 28.4 °F 23.3 °F 17.6 °F 64% 29.90 in 10.0 mi South 4.6 mph - N/A   Clear
4:35 AM 24.8 °F - 15.8 °F 69% 29.91 in 10.0 mi Calm Calm - N/A   Clear
4:55 AM 24.8 °F 15.3 °F 14.0 °F 64% 29.91 in 10.0 mi ESE 9.2 mph - N/A   Clear
5:15 AM 26.6 °F 17.5 °F 14.0 °F 59% 29.91 in 10.0 mi SE 9.2 mph - N/A   Clear
5:35 AM 24.8 °F 14.0 °F 14.0 °F 64% 29.92 in 10.0 mi ESE 11.5 mph - N/A   Clear
5:55 AM 24.8 °F 16.1 °F 12.2 °F 59% 29.92 in 10.0 mi ESE 8.1 mph - N/A   Clear
6:15 AM 24.8 °F 17.9 °F 12.2 °F 59% 29.92 in 10.0 mi East 5.8 mph - N/A   Clear
6:35 AM 21.2 °F 12.6 °F 10.4 °F 63% 29.93 in 10.0 mi SSE 6.9 mph - N/A   Clear
6:55 AM 15.8 °F 5.1 °F 8.6 °F 73% 29.93 in 10.0 mi SE 8.1 mph - N/A   Clear
7:15 AM 15.8 °F 8.6 °F 8.6 °F 73% 29.94 in 10.0 mi ESE 4.6 mph - N/A   Clear
7:35 AM 15.8 °F 2.1 °F 8.6 °F 73% 29.94 in 10.0 mi SE 12.7 mph - N/A   Clear
7:55 AM 15.8 °F 8.6 °F 8.6 °F 73% 29.95 in 10.0 mi SE 4.6 mph - N/A   Clear
8:15 AM 14.0 °F 5.1 °F 8.6 °F 79% 29.95 in 10.0 mi SE 5.8 mph - N/A   Clear
8:35 AM 14.0 °F 6.5 °F 8.6 °F 79% 29.95 in 10.0 mi East 4.6 mph - N/A   Clear
8:55 AM 15.8 °F 7.2 °F 8.6 °F 73% 29.95 in 10.0 mi ESE 5.8 mph - N/A   Clear
9:15 AM 15.8 °F 4.2 °F 8.6 °F 73% 29.95 in 10.0 mi SE 9.2 mph - N/A   Clear
9:35 AM 19.4 °F 9.5 °F 10.4 °F 68% 29.95 in 10.0 mi ESE 8.1 mph - N/A   Clear
9:55 AM 19.4 °F 8.6 °F 10.4 °F 68% 29.95 in 10.0 mi SE 9.2 mph - N/A   Clear
10:15 AM 21.2 °F 10.1 °F 12.2 °F 68% 29.95 in 10.0 mi SE 10.4 mph - N/A   Clear
10:35 AM 23.0 °F 12.4 °F 14.0 °F 68% 29.95 in 10.0 mi ESE 10.4 mph - N/A   Clear
10:55 AM 23.0 °F 13.1 °F 14.0 °F 68% 29.95 in 10.0 mi ESE 9.2 mph - N/A   Clear
11:15 AM 24.8 °F 16.9 °F 15.8 °F 69% 29.96 in 10.0 mi East 6.9 mph - N/A   Clear
11:35 AM 26.6 °F 19.1 °F 15.8 °F 64% 29.96 in 10.0 mi ESE 6.9 mph - N/A   Clear
11:55 AM 28.4 °F 20.4 °F 15.8 °F 59% 29.97 in 10.0 mi ESE 8.1 mph - N/A   Clear
12:15 PM 28.4 °F 22.2 °F 17.6 °F 64% 29.97 in 10.0 mi East 5.8 mph - N/A   Clear
12:35 PM 32.0 °F 26.4 °F 17.6 °F 55% 29.98 in 10.0 mi SSW 5.8 mph - N/A   Clear
12:55 PM 32.0 °F - 17.6 °F 55% 29.99 in 10.0 mi Calm Calm - N/A   Clear
1:15 PM 35.6 °F - 17.6 °F 48% 29.99 in 10.0 mi Calm Calm - N/A   Clear
1:35 PM 35.6 °F 29.9 °F 15.8 °F 44% 29.99 in 10.0 mi WNW 6.9 mph - N/A   Clear
1:55 PM 35.6 °F 31.7 °F 19.4 °F 52% 30.00 in 10.0 mi North 4.6 mph - N/A   Clear
2:15 PM 35.6 °F 29.2 °F 15.8 °F 44% 30.00 in 10.0 mi West 8.1 mph - N/A   Clear
2:35 PM 35.6 °F 29.2 °F 15.8 °F 44% 30.00 in 10.0 mi West 8.1 mph - N/A   Clear
2:55 PM 35.6 °F 29.2 °F 15.8 °F 44% 30.00 in 10.0 mi West 8.1 mph - N/A   Clear
3:15 PM 35.6 °F 30.7 °F 17.6 °F 48% 30.00 in 10.0 mi West 5.8 mph - N/A   Clear
3:35 PM 35.6 °F 32.8 °F 17.6 °F 48% 30.01 in 10.0 mi West 3.5 mph - N/A   Clear
3:55 PM 33.8 °F 29.6 °F 17.6 °F 52% 30.01 in 10.0 mi WNW 4.6 mph - N/A   Clear
4:15 PM 33.8 °F 30.8 °F 17.6 °F 52% 30.02 in 10.0 mi West 3.5 mph - N/A   Clear
4:35 PM 33.8 °F - 15.8 °F 48% 30.02 in 10.0 mi Calm Calm - N/A   Clear
4:55 PM 32.0 °F 26.4 °F 19.4 °F 60% 30.03 in 10.0 mi ESE 5.8 mph - N/A   Clear
5:15 PM 28.4 °F - 21.2 °F 74% 30.03 in 10.0 mi Calm Calm - N/A   Clear
5:35 PM 28.4 °F 23.3 °F 23.0 °F 80% 30.04 in 10.0 mi NNW 4.6 mph - N/A   Clear
5:55 PM 24.8 °F 16.9 °F 23.0 °F 93% 30.04 in 9.0 mi NW 6.9 mph - N/A   Clear
6:15 PM 23.0 °F 17.0 °F 23.0 °F 100% 30.05 in 10.0 mi NNW 4.6 mph - N/A   Clear
6:35 PM 23.0 °F 17.0 °F 23.0 °F 100% 30.06 in 10.0 mi NNW 4.6 mph - N/A   Clear
6:55 PM 21.2 °F 14.9 °F 21.2 °F 100% 30.06 in 10.0 mi NNW 4.6 mph - N/A   Clear
7:15 PM 17.6 °F 12.3 °F 17.6 °F 100% 30.07 in 10.0 mi NW 3.5 mph - N/A   Clear
7:35 PM 17.6 °F 12.3 °F 17.6 °F 100% 30.07 in 10.0 mi NW 3.5 mph - N/A   Clear
7:55 PM 17.6 °F 9.3 °F 17.6 °F 100% 30.08 in 10.0 mi NW 5.8 mph - N/A   Clear
8:15 PM 17.6 °F 8.2 °F 17.6 °F 100% 30.08 in 10.0 mi NW 6.9 mph - N/A   Clear
8:35 PM 17.6 °F 10.7 °F 17.6 °F 100% 30.09 in 10.0 mi NNW 4.6 mph - N/A   Clear
8:55 PM 15.8 °F 8.6 °F 15.8 °F 100% 30.10 in 10.0 mi NW 4.6 mph - N/A   Clear
9:15 PM 15.8 °F 8.6 °F 15.8 °F 100% 30.10 in 10.0 mi NW 4.6 mph - N/A   Clear
9:35 PM 15.8 °F 10.2 °F 15.8 °F 100% 30.10 in 10.0 mi NW 3.5 mph - N/A   Clear
9:55 PM 15.8 °F 10.2 °F 15.8 °F 100% 30.10 in 10.0 mi WNW 3.5 mph - N/A   Clear
10:15 PM 14.0 °F 8.2 °F 14.0 °F 100% 30.10 in 10.0 mi NW 3.5 mph - N/A   Clear
10:35 PM 14.0 °F 8.2 °F 14.0 °F 100% 30.10 in 10.0 mi NW 3.5 mph - N/A   Clear
10:55 PM 12.2 °F 4.3 °F 12.2 °F 100% 30.10 in 10.0 mi WNW 4.6 mph - N/A   Clear
11:15 PM 14.0 °F 6.5 °F 14.0 °F 100% 30.10 in 10.0 mi NW 4.6 mph - N/A   Clear
11:35 PM 14.0 °F 5.1 °F 14.0 °F 100% 30.10 in 10.0 mi NW 5.8 mph - N/A   Clear
11:55 PM 14.0 °F 3.9 °F 14.0 °F 100% 30.11 in 10.0 mi NW 6.9 mph - N/A   Clear